Probability
0 0 0 0 0 0 0 0 0 0 0 0 0 0 0 0 0 0 0 0 0 0 0 0 0 0 0 0 0 0 0 0 0 0 0 0 0 0
0 0 0 0 0 0 0 0 0 0 0 0 0 0 0 0 0 0 0 0 0 0 0 0 0 0 0 0 0 0 0 0 0 0 0 0 0 0
0 0 0 0 0 0 0 0 0 0 0 0 0 0 0 0 0 0 0 0 0 0 0 0 0 0 0 0 0 0 0 0 0 0 0 0 0 0
0 0 0 0 0 0 0 0 0 0 0 0 0 0 0 0 0 0 0 0 0 0 0 0 0 0 0 0 0 0 0 0 0 0 0 0 0 0
0 0 0 0 0 0 0 0 0 0 0 0 0 0 0 0 0 0 0 0 0 0 0 0 0 0 0 0 0 0 0 0 0 0 0 0 0 0
0 0 0 0 0 0 0 0 0 0 0 0 0 0 0 0 0 0 0 0 0 0 0 0 0 0 0 0 0 0 0 0 0 0 0 0 0 0
0 0 0 0 0 0 0 0 0 0 0 0 0 0 0 0 0 0 0 0 0 0 0 0 0 0 0 0 0 0 0 0 0 0 0 0 0 0
0 0 0 0 0 0 0 0 0 0 0 0 0 0 0 0 0 0 0 0 0 0 0 0 0 0 0 0 0 0 0 0 0 0 0 0 0 0
0 0 0 0 0 0 0 0 0 0 0 0 0 0 0 0 0 0 0 0 0 0 0 0 0 0 0 0 0 0 0 0 0 0 0 0 0 0
0 0 0 0 0 0 0 0 0 0 0 0 0 0 0 0 0 0 0 0 0 0 0 0 0 0 0 0 0 0 0 0 0 0 0 0 0 0
0 0 0 0 0 0 0 0 0 0 0 0 0 0 0 0 0 0 0 0 0 0 0 0 0 0 0 0 0 0 0 0 0 0 0 0 0 0
0 0 0 0 0 0 0 0 0 0 0 0 0 0 0 0 0 0 0 0 0 0 0 0 0 0 0 0 0 0 0 0 0 0 0 0 0 0
0 0 0 0 0 0 0 0 0 0 0 0 0 0 0 0 0 0 0 0 0 0 0 0 0 0 0 0 0 0 0 0 0 0 0 0 0 0
0 0 0 0 0 0 0 0 0 0 0 0 0 0 0 0 0 0 0 0 0 0 0 0 0 0 0 0 0 0 0 0 0 0 0 0 0 0
0 0 0 0 0 0 0 0 0 0 0 0 0 0 0 0 0 0 0 0 0 0 0 0 0 0 0 0 0 0 0 0 0 0 0 0 0 0
0 0 0 0 0 0 0 0 0 0 0 0 0 0 0 0 0 0 0 0 0 0 0 0 0 0 0 0 0 0 0 0 0 0 0 0 0 0
0 0 0 0 0 0 0 0 0 0 0 0 0 0 0 0 0 0 0 0 0 0 0 0 0 0 0 0 0 0 0 0 0 0 0 0 0 0
0 0 0 0 0 0 0 0 0 0 0 0 0 0 0 0 0 0 0 0 0 0 0 0 0 0 0 0 0 0 0 0 0 0 0 0 0 0
0 0 0 0 0 0 0 0 0 0 0 0 0 0 0 0 0 0 0 0 0 0 0 0 0 0 0 0 0 0 0 0 0 0 0 0 0 0
0 0 0 0 0 0 0 0 0 0 0 0 0 0 0 0 0 0 0 0 0 0 0 0 0 0 0 0 0 0 0 0 0 0 0 0 0 0
0 0 0 0 0 0 0 0 0 0 0 0 0 0 0 0 0 0 0 0 0 0 0 0 0 0 0 0 0 0 0 0 0 0 0 0 0 0
0 0 0 0 0 0 0 0 0 0 0 0 0 0 0 0 0 0 0 0 0 0 0 0 0 0 0 0 0 0 0 0 0 0 0 0 0 0
0 0 0 0 0 0 0 0 0 0 0 0 0 0 0 0 0 0 0 0 0 0 0 0 0 0 0 0 0 0 0 0 0 0 0 0 0 0
Height
5788 5787 5786 5786 5786 5786 5785 5785 5785 5785 5786 5786 5787 5788 5789 5789 5790 5790 5790 5791 5791 5791 5791 5791 5791 5790 5789 5789 5788 5788 5788 5789 5789 5790 5790 5790 5789 5789
5780 5778 5778 5777 5777 5776 5776 5776 5776 5776 5777 5777 5779 5780 5780 5781 5782 5783 5784 5784 5784 5784 5784 5785 5785 5784 5784 5783 5783 5783 5783 5783 5784 5784 5785 5785 5785 5786
5772 5771 5770 5769 5768 5768 5767 5767 5768 5768 5769 5769 5771 5772 5773 5774 5775 5776 5777 5777 5777 5778 5778 5778 5778 5778 5778 5778 5777 5778 5778 5778 5778 5779 5780 5781 5782 5783
5766 5765 5763 5762 5761 5760 5760 5759 5760 5760 5762 5762 5763 5765 5766 5767 5768 5769 5770 5771 5771 5771 5771 5772 5772 5772 5772 5772 5772 5773 5773 5773 5774 5775 5776 5778 5779 5781
5760 5759 5758 5756 5755 5755 5754 5754 5754 5754 5755 5756 5757 5758 5760 5761 5761 5762 5763 5764 5764 5765 5765 5766 5766 5766 5767 5767 5767 5768 5769 5769 5771 5772 5773 5775 5777 5779
5753 5752 5751 5750 5749 5749 5749 5748 5748 5749 5749 5750 5751 5751 5753 5754 5755 5756 5756 5757 5758 5759 5759 5760 5760 5761 5761 5761 5762 5763 5764 5766 5767 5769 5771 5773 5775 5777
5744 5744 5743 5743 5742 5742 5742 5742 5742 5742 5743 5744 5744 5745 5746 5747 5748 5749 5750 5750 5751 5752 5753 5754 5754 5755 5755 5756 5757 5759 5760 5762 5764 5765 5767 5769 5771 5773
5734 5734 5733 5733 5733 5733 5733 5733 5734 5734 5735 5736 5737 5737 5738 5739 5741 5741 5742 5743 5744 5746 5746 5747 5748 5749 5750 5751 5752 5753 5754 5756 5758 5760 5762 5764 5766 5768
5723 5723 5722 5722 5722 5722 5722 5723 5724 5725 5726 5727 5728 5729 5730 5731 5732 5734 5735 5736 5737 5738 5738 5740 5741 5742 5743 5744 5745 5746 5747 5749 5751 5753 5756 5758 5760 5762
5712 5711 5711 5710 5710 5710 5711 5711 5712 5713 5715 5716 5717 5718 5720 5722 5724 5726 5727 5727 5728 5729 5731 5732 5734 5735 5736 5737 5738 5739 5740 5741 5743 5745 5748 5750 5753 5755
5702 5701 5700 5699 5699 5699 5699 5699 5700 5701 5702 5704 5705 5707 5709 5711 5713 5716 5717 5718 5719 5721 5722 5724 5725 5727 5728 5729 5730 5731 5732 5733 5734 5736 5739 5742 5744 5747
5693 5691 5690 5689 5688 5687 5688 5688 5688 5689 5690 5691 5693 5695 5697 5699 5702 5704 5707 5708 5710 5712 5713 5715 5716 5718 5720 5721 5722 5723 5724 5724 5725 5727 5730 5733 5736 5739
5685 5683 5681 5680 5679 5678 5677 5677 5677 5677 5678 5679 5680 5682 5684 5687 5690 5692 5694 5697 5698 5700 5702 5704 5706 5708 5710 5712 5713 5714 5715 5716 5717 5718 5721 5724 5727 5730
5677 5675 5674 5672 5671 5669 5668 5667 5667 5667 5667 5667 5669 5670 5672 5674 5677 5679 5681 5684 5686 5688 5691 5693 5695 5698 5700 5702 5704 5705 5707 5708 5709 5710 5711 5714 5717 5720
5669 5667 5665 5664 5662 5661 5659 5658 5658 5657 5657 5657 5658 5659 5660 5662 5664 5666 5668 5671 5673 5676 5678 5681 5683 5686 5689 5691 5694 5695 5697 5699 5700 5702 5703 5705 5707 5711
5660 5658 5656 5654 5652 5651 5650 5649 5648 5648 5648 5648 5648 5649 5649 5650 5652 5653 5656 5658 5661 5663 5666 5668 5671 5674 5677 5680 5682 5684 5687 5689 5692 5693 5695 5697 5699 5701
5651 5648 5646 5644 5642 5640 5639 5638 5637 5637 5637 5638 5638 5639 5640 5640 5641 5642 5643 5645 5648 5650 5653 5656 5659 5661 5665 5668 5670 5673 5675 5678 5681 5684 5686 5688 5689 5692
5643 5640 5637 5634 5632 5630 5628 5627 5626 5626 5626 5626 5627 5628 5629 5630 5630 5632 5633 5634 5636 5638 5640 5642 5646 5649 5653 5656 5658 5661 5664 5667 5670 5673 5675 5678 5680 5683
5636 5632 5629 5626 5623 5620 5618 5616 5615 5614 5614 5614 5614 5615 5616 5618 5619 5621 5623 5624 5626 5627 5629 5631 5633 5636 5640 5643 5646 5649 5651 5654 5658 5661 5664 5667 5670 5673
5630 5626 5622 5618 5615 5611 5608 5606 5604 5602 5602 5601 5601 5602 5603 5605 5607 5609 5611 5614 5616 5618 5620 5621 5623 5625 5627 5630 5633 5636 5638 5641 5645 5649 5652 5656 5659 5662
5624 5620 5616 5612 5608 5604 5600 5597 5594 5592 5590 5589 5588 5589 5590 5591 5593 5596 5598 5601 5604 5607 5609 5612 5613 5616 5617 5620 5622 5624 5627 5629 5633 5636 5640 5644 5648 5651
5618 5614 5610 5605 5601 5596 5592 5589 5585 5582 5579 5577 5576 5575 5576 5577 5579 5582 5585 5587 5591 5594 5597 5600 5603 5606 5608 5611 5613 5614 5617 5619 5621 5624 5628 5632 5635 5640
5612 5607 5603 5598 5594 5589 5585 5581 5577 5574 5570 5567 5565 5563 5563 5564 5565 5567 5570 5574 5577 5581 5584 5588 5591 5595 5598 5601 5603 5606 5608 5610 5612 5614 5617 5620 5624 5629
Wind_Speed
32 32 33 34 34 34 34 34 33 32 31 31 29 26 26 25 25 25 23 22 21 21 20 20 19 19 18 19 19 19 20 22 23 24 25 24 23 22
29 29 30 33 35 34 33 33 32 31 29 29 27 25 25 24 24 23 23 22 21 21 20 19 19 18 17 18 19 19 19 20 21 21 21 20 18 17
25 26 27 28 30 31 32 33 32 29 27 26 24 22 22 22 22 22 22 22 21 20 20 19 18 18 16 16 16 17 18 18 18 18 17 16 15 14
23 23 23 23 24 26 26 26 26 25 24 23 22 21 21 20 21 21 21 21 20 20 20 19 18 16 15 14 14 15 16 16 16 15 15 15 15 15
24 23 23 22 21 22 23 23 23 22 21 20 21 20 20 20 20 20 20 20 20 20 20 18 17 16 14 13 13 13 14 15 15 15 15 16 17 18
27 26 25 24 23 22 22 22 22 21 21 21 22 21 21 21 21 20 20 20 21 21 20 20 19 16 14 13 13 15 16 17 17 17 18 19 20 21
31 30 30 29 28 27 26 25 25 24 24 24 24 24 23 23 23 23 22 22 21 22 22 21 20 18 17 15 16 17 19 20 20 21 21 23 24 24
34 34 34 33 33 32 31 30 29 28 27 27 27 26 25 25 25 24 24 24 24 23 24 23 21 20 19 19 19 20 22 24 25 26 26 26 27 27
34 34 34 34 35 35 35 34 34 33 32 31 30 29 28 27 27 26 26 26 27 26 26 25 24 24 23 22 23 23 25 27 28 29 30 30 30 30
33 34 34 35 35 36 36 36 36 36 35 34 33 32 31 31 30 29 28 29 29 28 28 28 27 26 25 25 26 27 28 29 31 32 32 33 33 32
31 32 33 33 34 34 35 36 37 37 36 36 36 35 34 34 34 34 33 32 32 32 33 32 31 30 28 28 27 28 29 31 33 33 34 35 35 33
28 29 30 31 31 32 33 35 36 37 37 37 37 37 37 37 37 38 38 38 38 38 37 36 34 33 31 30 29 28 29 30 31 33 34 35 35 34
26 27 28 28 29 30 30 31 32 34 36 37 37 38 39 39 40 41 42 42 42 41 40 39 38 35 33 31 31 29 28 29 30 32 35 36 35 34
27 27 28 28 28 28 29 29 30 31 32 33 35 36 38 40 41 41 42 43 44 44 43 43 41 40 37 35 33 32 30 30 30 29 32 35 37 36
29 29 29 29 30 29 29 29 29 29 29 29 31 32 35 37 39 40 42 43 43 43 43 43 42 41 40 38 36 35 35 33 32 31 31 33 36 36
30 30 30 30 30 31 32 32 31 30 30 29 29 29 31 33 35 38 40 42 42 42 42 42 42 41 40 40 38 37 37 37 36 34 33 34 36 37
29 29 29 30 30 31 32 32 33 33 33 33 32 31 30 30 31 33 35 38 41 43 43 43 42 41 42 41 41 41 40 40 38 36 35 35 36 37
26 27 27 28 29 30 32 33 34 34 35 35 35 35 34 32 31 31 31 32 33 36 38 40 42 42 42 42 43 43 42 42 41 39 38 38 38 38
25 26 26 27 28 29 30 31 32 34 35 36 36 37 37 36 35 33 32 31 30 30 31 32 35 39 42 43 44 45 45 44 43 42 41 40 39 38
25 26 26 26 27 28 29 30 31 33 35 36 38 38 39 39 38 38 36 34 32 30 29 28 29 31 34 37 41 43 45 46 46 44 43 42 40 39
26 26 27 26 26 27 27 28 29 30 32 35 38 40 41 41 41 41 40 39 37 35 32 30 29 28 28 29 31 34 37 41 44 44 44 42 41 39
28 28 28 27 26 26 26 26 27 28 29 31 34 37 40 42 43 44 43 42 41 40 38 36 33 30 29 27 26 26 28 31 34 38 41 42 41 41
29 29 29 29 28 28 27 27 26 26 27 28 30 33 36 39 42 44 45 45 45 44 43 41 39 37 35 32 29 27 27 27 28 31 34 36 38 39
Wind_Direction
280 276 273 271 269 270 267 266 262 259 257 253 250 249 249 254 260 264 269 271 270 269 267 265 264 264 263 260 257 257 255 255 256 259 262 265 265 264
284 281 276 274 270 267 266 264 261 260 257 254 252 251 251 253 257 261 265 267 267 266 264 262 261 262 262 260 257 256 256 255 256 258 261 263 260 254
289 286 281 276 271 265 260 259 257 256 253 252 251 250 250 253 255 258 261 262 264 264 263 263 263 262 262 261 259 257 255 254 254 256 256 252 244 231
288 287 286 282 276 271 266 262 257 254 252 251 250 249 250 254 256 257 258 260 262 262 263 263 264 263 261 262 261 260 256 252 251 250 245 238 231 221
284 285 283 282 280 276 269 265 261 255 252 253 254 253 254 256 257 256 256 258 261 260 260 261 262 263 262 262 264 263 258 253 250 245 238 232 226 220
279 279 278 277 276 274 271 268 265 263 261 260 259 259 258 258 259 257 257 258 259 258 259 259 261 262 263 268 268 264 259 253 247 240 234 229 225 222
277 276 275 273 273 272 271 269 267 265 264 263 261 260 260 258 257 257 257 257 257 257 257 258 259 259 262 267 268 262 255 249 245 239 234 230 228 227
276 275 273 272 270 269 269 267 266 264 263 262 261 259 258 257 257 256 255 255 255 255 255 255 255 256 258 261 264 263 255 248 244 240 235 234 232 231
276 274 272 271 269 268 267 266 265 264 262 261 259 257 255 254 253 252 251 252 252 251 253 254 253 255 257 257 259 262 257 250 243 240 236 235 235 235
276 274 272 270 267 266 264 263 262 261 259 257 255 253 251 250 248 247 248 248 246 246 249 251 252 254 255 255 257 256 255 252 248 242 237 236 237 237
278 276 275 272 269 266 264 262 260 258 256 254 251 249 247 245 243 242 241 242 244 246 248 250 252 253 254 257 256 257 255 253 250 245 240 236 236 237
282 280 278 276 273 271 268 265 262 259 256 253 250 248 245 243 241 240 239 240 242 244 246 248 250 253 254 255 255 256 255 253 250 246 242 237 235 234
288 285 283 281 279 277 273 270 267 263 259 256 252 250 248 245 242 241 240 240 241 242 244 246 248 250 252 252 252 252 252 252 251 247 244 238 234 232
290 288 286 283 282 280 278 275 272 269 265 261 257 254 251 248 246 244 244 244 243 244 244 245 247 248 249 248 247 246 246 249 251 251 246 240 232 232
289 286 284 282 281 279 277 276 274 271 268 265 262 258 255 253 250 248 247 246 246 245 245 245 246 246 246 245 244 244 244 245 247 247 246 239 230 228
290 288 285 283 281 278 275 273 272 270 268 267 266 264 261 259 256 252 250 248 247 247 245 244 244 244 244 243 243 243 243 243 245 244 243 238 232 230
295 292 290 285 282 279 276 272 269 267 265 264 264 262 262 260 258 257 254 252 250 248 247 246 246 245 244 244 243 242 242 242 242 240 239 236 235 234
305 301 297 293 288 283 280 276 273 270 267 264 262 260 259 258 258 257 255 253 252 250 248 247 246 246 246 245 243 242 241 241 240 240 240 239 238 237
313 309 306 302 297 292 287 281 276 271 268 264 261 258 256 255 253 253 252 252 252 251 249 248 247 246 245 245 244 244 243 242 241 241 241 242 242 242
320 316 313 310 306 300 294 288 282 276 270 265 261 258 256 253 251 249 248 247 247 248 248 247 246 246 245 246 246 246 245 244 243 242 242 242 242 243
323 321 318 315 312 308 302 296 290 283 277 271 266 261 257 253 250 247 246 244 244 244 244 243 240 240 243 244 244 245 246 247 246 244 243 241 240 241
325 323 320 318 316 312 309 305 300 293 286 278 270 265 260 255 251 248 246 244 242 240 240 239 238 236 237 239 240 242 245 246 246 245 244 242 240 239
324 324 323 322 319 315 313 311 307 302 296 289 279 271 264 259 254 251 247 245 242 239 237 236 236 234 233 233 233 236 241 243 244 244 243 241 239 239